Погода в Дашогузе

Туркменистан     41°50′13″N   59°58′40″E
темп.,
°C
ветер,
м/с
пор.,
м/с
влажн.,
%
обл.,
%
осадки,
мм/ч
давл.,
гПа
погр.,
м
19 апреля, пн
пн1923:00+24в331369 0.0 101633
02:00+22вюв4914100 0.0 1015194
05:00+21вюв4914100 0.0 1014190
08:00+21вюв2321100 0.0 101491
11:00+25ю3620100 0.0 10141624
14:00+28ю561696 0.0 10122906
17:00+28юз8718100 0.0 10103150
20:00+25ююв462266 0.0 1010112
20 апреля, вт
вт2023:00+23ююз5112297 0.0 1010274
02:00+22зсз4729100 0.0 1010129
05:00+19сз610410 0.0 1010296
08:00+18ссз811495 0.0 1012483
11:00+22с91134100 0.0 10131223
14:00+24с8930100 0.0 10142096
17:00+23с893166 0.0 10141838
20:00+19с78395 0.0 10161035
21 апреля, ср
ср2123:00+15ссв79475 0.0 1018601
02:00+14св71042100 0.0 1018702
05:00+11св71045100 0.0 1020583
08:00+11всв8104144 0.0 1022663
11:00+15всв78285 0.0 10221022
14:00+18всв88145 0.0 10221284
17:00+19всв881297 0.0 10221384
20:00+16всв7914100 0.0 10231058
22 апреля, чт
чт2223:00+14всв81218100 0.0 1023752
02:00+13в81221100 0.0 1024732
05:00+12в8122590 0.0 1024656
08:00+11в8112693 0.0 1026628
11:00+17в892550 0.0 1026963
14:00+21в891782 0.0 10241317
17:00+22в781366 0.0 10231553
20:00+20в6101621 0.0 1023470
23 апреля, пт
пт2323:00+18в6132065 0.0 1023495
02:00+15в6131249 0.0 1022456
05:00+13в612195 0.0 1022353
08:00+14в81120100 0.0 1022427
11:00+20в78105 0.0 1022853
14:00+24в667100 0.0 10201318
17:00+26вюв677100 0.0 10181334
20:00+23в699100 0.0 1017449